#timestamp,LO_Frequency,Hit,StdDev 
1642255215.5,286046999.7,N
1642255235.4,286046999.7,N
1642255255.2,286047002.8,N
1642255275.0,286047000.2,N
1642255275.9,286047000.2,N
1642255295.8,286047002.1,N
1642255315.6,286047001.8,N
1642255335.4,286047000.0,N
1642255355.3,286047002.3,N
1642255375.1,286047002.5,N
1642255395.9,286047000.6,N
1642255415.7,286047000.6,N
1642255435.5,286046999.8,N
1642255455.4,286047000.2,N
1642255475.2,286047002.4,N
1642255495.0,286047001.1,N
1642255496.0,286047001.1,N
1642255515.8,286047000.5,N
1642255535.6,286047002.2,N
1642255555.5,286047000.0,N
1642255575.3,286047000.7,N
1642255595.1,286046998.5,N
1642255615.9,286047001.2,N
1642255635.7,286047000.5,N
1642255655.6,286047002.7,N
1642255675.4,286047000.0,N
1642255695.2,286047002.3,N
1642255715.1,286047002.3,N
1642255716.0,286047002.3,N
1642255735.8,286047002.8,N
1642255755.6,286047000.3,N
1642255775.5,286047000.2,N
1642255795.3,286047000.1,N
1642255815.2,286047002.8,N
1642255835.9,286047002.4,N
1642255855.7,286047001.9,N
1642255875.6,286047000.1,N
1642255895.4,286046999.7,N
1642255915.2,286047002.2,N
1642255935.1,286047002.7,N
1642255955.8,286047000.2,N
1642255975.7,286046998.2,N
1642255995.5,286047000.5,N
1642256015.4,286047000.0,N
1642256035.2,286046998.1,N
1642256055.0,286046999.9,N
1642256055.9,286046999.9,N
1642256075.8,286047001.0,N
1642256095.6,286047002.8,N
1642256115.5,286046999.7,N
1642256135.3,286047000.4,N
1642256155.1,286047000.1,N
1642256175.9,286047001.9,N
1642256195.7,286047002.6,N
1642256215.6,286047002.4,N
1642256235.4,286047002.6,N
1642256255.2,286046999.9,N
1642256275.1,286047002.0,N
1642256276.0,286047002.0,N
1642256295.8,286047002.3,N
1642256315.6,286046999.9,N
1642256335.5,286047000.4,N
1642256355.3,286047000.5,N
1642256375.2,286047000.4,N
1642256395.9,286047000.5,N
1642256415.7,286047000.2,N
1642256435.6,286047002.4,N
1642256455.4,286047002.5,N
1642256475.3,286047001.5,N
1642256495.1,286047004.4,Y
1642256515.8,286047002.6,P
1642256535.7,286047002.4,N
1642256555.5,286047002.0,N
1642256575.4,286047004.2,Y
1642256595.2,286047000.4,P
1642256615.0,286046999.2,N
1642256615.9,286046999.2,N
1642256635.8,286046998.7,N
1642256655.6,286046998.7,N
1642256675.5,286047000.9,N
1642256695.3,286046998.9,N
1642256715.1,286047000.5,N
1642256735.9,286046998.1,N
1642256755.7,286046998.8,N
1642256775.5,286047000.2,N
1642256795.4,286046998.8,N
1642256815.2,286046996.9,N
1642256835.1,286046999.0,N
1642256836.0,286046999.0,N
1642256855.8,286046997.4,N
1642256875.6,286047004.9,Y
1642256895.5,286047016.3,P
1642256915.3,286047017.5,N
1642256935.1,286047018.8,N
1642256955.9,286047012.6,N
1642256975.7,286047009.6,N
1642256995.6,286047008.3,N
1642257015.4,286047006.4,N
1642257035.2,286047005.7,N
1642257055.1,286047003.6,N
1642257056.0,286047003.6,N
1642257075.8,286047004.2,N
1642257095.6,286047003.3,N
1642257115.5,286047003.0,N
1642257135.3,286047003.1,N
1642257155.2,286047002.9,N
1642257175.9,286047006.0,N
1642257195.7,286047003.5,N
1642257215.6,286047003.0,N
1642257235.4,286047001.5,N
1642257255.3,286047000.0,N
1642257275.1,286047000.9,N
1642257276.0,286047000.9,N
1642257295.8,286046998.5,N
1642257315.7,286047000.6,N
1642257335.5,286046998.1,N
1642257355.4,286047000.8,N
1642257375.2,286046999.7,N
1642257395.0,286047000.4,N
1642257395.9,286047000.4,N
1642257415.8,286047000.4,N
1642257435.6,286047002.8,N
1642257455.4,286047002.3,N
1642257475.3,286047001.4,N
1642257495.1,286047002.2,N
1642257515.9,286047004.0,N
1642257535.7,286047003.8,N
1642257555.5,286047004.3,N
1642257575.4,286047002.1,N
1642257595.2,286047001.3,N
1642257615.0,286047000.6,N
1642257616.0,286047000.6,N
1642257635.8,286047001.2,N
1642257655.6,286047001.1,N
1642257675.5,286046998.3,N
1642257695.3,286046999.3,N
1642257715.1,286046996.9,N
1642257735.9,286046999.3,N
1642257755.7,286046999.2,N
1642257775.6,286046998.5,N
1642257795.4,286046999.3,N
1642257815.3,286046998.2,N
1642257835.1,286046998.7,N
1642257836.0,286046998.7,N
1642257855.8,286046998.5,N
1642257875.7,286047000.6,N
1642257895.5,286047000.6,N
1642257915.3,286047000.7,N
1642257935.2,286047001.0,N
1642257955.0,286046999.8,N
1642257955.9,286046999.8,N
1642257975.8,286047001.0,N
1642257995.6,286046998.2,N
1642258015.4,286046998.3,N
1642258035.3,286046997.1,N
1642258055.1,286046996.9,N
1642258075.9,286046998.4,N
1642258095.7,286046998.6,N
1642258115.5,286046999.2,N
1642258135.4,286046997.0,N
1642258155.2,286046996.9,N
1642258175.0,286046999.0,N
1642258175.9,286046999.0,N
1642258195.8,286046998.8,N
1642258215.6,286046998.9,N
1642258235.5,286046998.1,N
1642258255.3,286046998.1,N
1642258275.1,286047001.1,N
1642258295.9,286047002.7,N
1642258315.7,286047002.3,N
1642258335.5,286047001.4,N
1642258355.4,286047004.1,N
1642258375.2,286047001.4,N
1642258395.1,286047002.3,N
1642258396.0,286047002.3,N
1642258415.8,286047000.2,N
1642258435.6,286047000.6,N
1642258455.5,286047000.5,N
1642258475.3,286046998.3,N
1642258495.2,286046999.3,N
1642258515.9,286046998.3,N
1642258535.7,286046998.7,N
1642258555.6,286046996.8,N
1642258575.4,286046997.2,N
1642258595.2,286046999.5,N
1642258615.1,286046998.7,N
1642258616.0,286046998.7,N
1642258635.8,286047000.9,N
1642258655.7,286047000.7,N
1642258675.5,286047000.8,N
1642258695.3,286047001.1,N
1642258715.2,286047000.7,N
1642258735.0,286047000.5,N
1642258735.9,286047000.5,N
1642258755.8,286046998.7,N
1642258775.6,286046998.6,N
1642258795.4,286047000.0,N
